Temp
16 18 18 18 18 19 19 19 20 21 21 22 22 23 24 25 25 25 23 24 24 24 25 24 24 23 23 19 18 18 21 20 20 18 21 16 17 16 15 16 14 15 15 12 11
17 18 18 18 19 19 19 20 20 21 21 22 23 24 24 25 25 24 24 24 25 25 25 25 23 23 20 20 18 20 19 20 19 18 19 17 17 17 17 16 16 15 11 9 8
17 18 18 19 19 19 20 20 20 21 22 22 23 24 25 25 24 24 24 25 25 25 25 24 23 22 22 20 19 17 20 19 19 18 18 17 16 16 17 16 17 17 14 8 8
17 18 18 19 19 20 20 20 20 21 22 23 23 24 25 25 24 24 25 25 25 25 24 23 22 22 21 21 18 20 18 18 18 18 17 17 16 16 15 20 17 17 14 9 9
18 19 19 19 19 20 20 20 21 21 22 23 23 24 24 23 23 25 25 25 25 24 23 22 22 20 22 19 18 19 18 17 17 17 16 16 16 17 16 17 14 13 11 10 10
18 19 19 20 20 20 21 21 21 22 23 23 23 24 24 23 25 25 25 24 24 24 22 22 21 19 18 18 19 17 17 17 16 17 16 16 17 16 18 15 14 13 12 11 11
18 19 20 20 20 21 21 21 22 22 23 23 23 23 22 23 25 24 24 24 24 23 22 21 21 21 18 18 16 17 18 17 16 16 17 15 17 16 18 15 15 13 13 11 10
18 19 20 21 21 21 21 22 22 23 23 23 23 23 21 24 24 24 24 23 23 23 23 21 21 17 18 16 17 18 17 19 18 16 16 17 20 19 16 15 17 15 13 12 11
19 19 21 21 21 21 22 23 23 23 24 23 23 22 22 23 23 23 24 23 23 22 21 21 20 16 17 18 18 16 20 18 18 15 16 16 18 18 14 13 16 16 15 13 12
19 20 21 20 21 22 23 24 23 23 23 22 22 22 23 23 23 23 23 23 22 21 21 19 16 17 15 18 20 20 19 18 17 17 15 15 16 18 17 14 17 17 16 14 13
20 20 20 20 21 22 23 23 21 21 22 22 22 21 21 23 23 22 22 22 21 20 20 18 19 19 18 17 18 19 18 17 17 17 16 16 16 17 19 14 16 17 16 16 15
19 20 20 21 22 22 22 19 19 20 20 20 19 20 21 22 22 21 22 22 21 20 19 18 18 18 18 17 17 17 17 17 17 15 15 16 16 19 19 18 17 17 17 16 16
20 20 21 22 22 22 21 20 20 19 18 19 20 21 21 21 21 21 21 20 20 20 19 18 20 18 19 18 18 17 17 17 18 16 15 14 16 17 19 15 15 14 15 15 15
20 20 21 21 21 21 20 20 19 19 17 20 21 21 21 21 21 20 20 21 20 20 18 17 18 19 19 18 17 17 16 16 17 17 17 16 18 18 18 18 16 17 15 15 14
19 20 21 21 21 20 19 20 19 19 19 21 21 21 20 21 20 20 20 20 20 20 19 20 19 18 18 18 17 18 17 17 16 15 15 15 16 18 16 21 22 19 18 16 14
20 20 20 20 20 20 20 20 19 19 19 21 20 20 20 20 20 20 20 19 19 19 18 17 17 18 18 17 17 17 17 14 12 14 16 15 16 19 19 22 20 19 19 17 16
20 20 20 20 19 20 20 18 18 18 20 21 21 20 20 20 20 19 19 19 19 20 18 17 18 17 17 18 17 16 16 18 18 18 19 14 14 19 20 19 18 19 19 18 15
19 20 20 19 19 20 19 17 19 20 19 20 20 19 20 20 20 19 18 17 16 18 16 17 20 17 17 18 18 16 16 17 19 18 17 13 16 21 19 18 16 16 15 14 16
19 19 18 18 19 19 15 16 17 17 20 20 20 20 20 19 19 19 18 17 17 16 18 17 18 16 16 16 17 16 16 15 16 13 14 15 16 18 19 20 20 19 16 17 17
19 18 17 17 18 19 15 16 17 17 19 20 21 20 20 19 19 19 19 18 19 16 16 18 17 17 16 16 14 16 15 17 14 17 17 16 15 19 20 21 21 20 19 19 19
18 15 16 17 18 14 15 14 17 17 18 20 19 19 18 20 19 18 19 18 17 16 16 16 16 17 16 16 16 14 15 13 13 13 16 15 16 17 19 20 18 18 18 18 18
14 16 16 17 14 9 13 15 17 19 18 19 18 18 18 18 18 17 17 18 16 16 17 15 13 15 17 15 15 15 14 14 15 16 12 12 16 20 19 18 16 19 19 18 16
11 12 16 17 14 12 14 16 17 18 18 18 18 17 17 18 18 16 17 16 15 16 16 15 14 14 16 16 15 15 14 14 12 11 13 17 19 18 17 20 18 17 18 17 14
10 14 12 9 9 13 16 17 18 17 18 17 17 17 17 17 15 17 17 16 15 15 15 14 13 16 17 17 16 15 14 13 14 14 18 16 18 19 20 19 18 18 16 15 13
8 12 11 13 13 13 15 16 16 17 16 16 16 16 16 16 16 15 15 16 14 14 13 13 13 12 13 14 14 15 14 14 14 17 16 18 18 19 20 18 17 15 14 13 14
10 11 8 10 11 12 13 14 14 16 17 16 16 15 14 14 15 16 16 15 15 12 12 10 13 12 11 13 13 13 13 14 14 15 15 16 16 18 18 15 14 16 13 13 13
8 9 10 10 10 11 12 13 14 15 15 15 15 14 14 13 13 13 12 13 14 14 11 10 11 11 15 13 12 12 13 15 14 13 14 15 18 15 15 14 15 16 12 13 13
Height
833 834 834 833 834 833 834 835 836 834 834 832 831 830 828 828 828 828 828 830 830 828 827 827 827 827 828 833 836 840 853 860 855 861 845 851 850 850 850 851 854 851 849 852 852
833 833 832 833 834 833 834 835 836 834 833 831 830 828 828 827 826 828 830 828 828 827 826 826 827 828 834 836 840 844 856 851 843 845 844 846 848 846 848 850 849 848 850 851 853
831 830 831 833 834 834 833 834 835 833 832 831 828 828 826 827 827 829 829 828 827 825 825 825 826 828 835 837 843 847 848 844 840 841 841 844 847 843 844 846 836 835 840 849 852
830 830 831 832 834 833 833 834 834 833 830 829 828 828 826 827 845 827 827 827 826 825 825 825 827 832 838 840 842 846 842 842 840 840 843 844 841 841 839 823 825 826 831 840 844
828 829 831 834 833 832 833 833 832 831 829 828 827 827 826 830 829 826 826 827 826 825 825 825 828 833 839 840 842 844 843 842 840 840 841 841 839 836 829 824 826 827 830 833 835
829 829 832 832 832 832 833 831 831 830 828 827 826 826 828 836 825 825 825 826 826 825 826 825 827 830 839 841 842 843 843 842 840 839 839 840 837 836 817 818 822 825 825 827 828
829 831 831 831 830 831 832 829 829 828 826 826 825 826 828 828 824 824 825 825 826 826 826 826 826 829 838 842 843 843 844 842 840 839 837 839 837 831 810 817 818 821 821 822 822
830 830 829 829 829 829 829 826 827 826 824 825 825 826 828 822 822 823 824 825 825 825 826 826 827 832 838 843 844 846 847 847 836 840 837 839 825 809 810 814 809 812 814 816 815
830 829 826 827 828 826 827 824 824 824 823 824 825 825 829 822 822 822 823 824 825 826 827 827 828 839 842 847 851 854 849 851 841 839 839 842 824 809 811 812 805 803 803 805 806
827 825 826 827 826 825 823 821 822 822 822 823 826 829 822 824 821 821 822 822 824 826 829 831 838 844 851 849 857 851 852 849 849 837 843 842 828 805 804 810 799 794 793 795 795
826 826 826 825 822 822 821 820 825 825 822 823 823 822 822 821 821 820 820 821 822 828 837 838 843 847 841 845 843 844 849 850 841 834 838 832 823 804 788 801 791 783 782 783 782
826 826 824 822 821 821 820 820 827 826 829 820 822 820 819 821 823 820 821 825 825 836 836 843 847 836 836 840 844 847 848 845 837 837 840 829 817 791 778 778 774 771 771 771 773
823 823 821 821 820 822 821 824 825 824 832 824 821 818 818 820 823 822 821 823 828 836 838 844 832 832 832 836 841 843 846 843 840 836 837 836 812 795 775 778 772 769 763 764 763
823 822 821 820 823 822 824 824 825 826 846 832 824 821 820 819 825 820 820 823 828 834 836 840 831 831 833 836 839 845 836 838 838 839 841 835 824 800 782 772 768 762 762 759 759
823 821 820 820 822 822 825 825 825 828 862 827 824 818 818 824 823 822 820 821 829 829 834 833 830 832 834 831 834 835 832 835 838 844 847 843 843 799 791 769 760 758 757 756 756
820 820 820 820 820 822 823 824 827 849 857 829 822 824 825 823 822 821 821 820 824 829 832 834 829 828 828 830 831 832 834 845 853 850 847 843 842 807 789 771 767 756 753 754 752
818 817 819 819 821 822 823 826 852 858 829 831 828 826 827 827 825 825 827 831 834 837 840 834 831 828 827 831 834 836 842 844 839 838 833 845 846 799 774 771 770 765 756 751 751
817 818 818 819 821 822 824 840 854 837 836 823 824 827 830 827 827 827 832 837 833 834 845 846 836 830 828 829 832 839 842 847 846 842 837 847 828 790 769 767 766 764 763 758 750
815 817 819 820 820 822 832 855 847 839 826 826 826 830 831 828 829 830 833 836 831 833 838 846 838 831 830 831 833 841 845 843 845 859 856 829 811 784 765 758 757 755 757 752 747
816 817 819 820 821 823 839 847 837 829 824 824 830 829 834 833 833 834 833 827 827 832 831 834 843 833 833 833 838 835 840 842 854 844 842 827 823 795 773 764 757 755 755 750 744
816 821 821 821 821 829 845 845 833 824 822 825 828 831 834 832 832 835 830 827 827 832 832 835 843 836 834 835 833 845 844 851 852 853 840 838 816 784 770 762 766 762 757 750 745
817 827 820 819 833 846 842 834 825 821 822 822 824 828 831 831 833 838 836 828 827 829 832 839 849 847 832 833 832 832 837 840 843 841 851 846 800 760 761 765 768 758 752 747 747
823 824 819 819 838 842 834 828 824 822 822 824 824 826 828 830 834 834 829 826 827 829 833 836 844 850 836 834 833 832 835 834 843 847 835 821 782 760 762 758 761 760 752 749 744
823 826 825 825 830 830 829 826 824 820 820 821 823 825 829 831 832 830 829 827 828 828 829 830 842 834 833 826 824 831 830 833 829 834 803 803 776 761 758 762 761 758 753 750 746
822 824 826 829 828 827 825 825 826 823 821 821 825 826 829 833 832 836 831 828 829 829 832 835 839 838 832 824 826 819 822 818 822 801 807 772 779 761 755 762 761 760 756 753 746
821 824 829 829 827 828 829 828 828 824 822 823 826 826 829 832 828 828 828 828 828 831 832 841 832 832 829 822 817 816 812 805 802 795 790 778 779 754 758 762 762 753 754 751 746
820 821 822 832 833 832 830 824 824 823 822 822 824 828 829 829 826 825 826 825 822 824 833 838 835 837 806 816 820 816 797 787 784 787 779 778 755 762 762 763 758 751 754 750 746
Wind_Speed
6 5 5 3 3 3 2 1 3 5 6 7 8 9 9 8 2 4 4 6 8 9 5 2 5 4 5 4 4 2 2 3 5 6 4 4 6 2 1 4 4 7 3 1 14
6 5 3 3 4 4 1 2 4 5 6 8 8 9 11 8 4 5 4 8 10 5 3 2 2 3 3 3 2 3 2 6 4 4 4 5 6 6 4 5 5 4 3 6 23
4 3 3 4 3 2 1 2 5 6 6 7 8 9 10 5 3 1 5 9 7 5 2 1 3 3 2 2 1 2 4 2 3 3 3 3 3 5 6 7 9 12 11 15 21
4 4 4 5 4 2 1 4 5 6 7 7 8 9 6 3 0 2 4 8 6 4 2 4 3 3 3 3 2 1 3 3 1 1 2 3 3 4 10 7 2 12 10 19 22
4 5 4 5 3 0 3 5 6 7 7 6 7 9 3 4 4 0 4 5 5 3 3 2 3 4 3 3 2 2 2 2 2 3 4 2 6 7 10 13 3 6 11 17 22
4 4 5 4 2 2 4 5 7 8 6 5 6 6 1 1 2 2 3 3 6 4 3 3 3 3 4 2 3 1 3 4 4 2 3 3 3 1 4 3 11 10 13 15 22
5 6 5 4 1 4 6 6 7 8 6 4 5 4 3 8 3 2 2 2 4 4 2 2 6 3 4 2 2 0 5 5 4 3 3 3 6 11 11 3 7 13 13 14 21
5 5 4 1 3 5 7 7 9 8 4 3 4 0 5 2 3 2 1 1 1 2 4 7 7 6 3 2 4 3 2 4 1 4 1 2 9 10 2 8 14 12 12 14 18
4 3 2 2 5 7 9 9 8 5 3 5 2 2 6 1 1 0 1 1 2 4 4 5 4 4 2 3 3 4 3 3 7 6 2 4 10 7 3 7 12 12 14 14 15
3 1 0 4 6 8 9 8 5 2 2 4 2 4 1 1 1 1 1 2 3 3 2 4 4 3 3 3 3 4 4 4 6 2 3 4 20 22 14 9 17 14 14 14 16
2 1 2 4 5 8 7 1 3 3 1 5 4 3 2 1 2 1 2 3 3 5 2 3 2 6 7 6 2 2 3 5 4 4 4 8 17 23 23 9 18 19 17 17 18
2 1 3 5 6 5 3 6 2 2 4 1 4 3 3 1 2 1 1 2 2 2 2 4 6 5 3 4 4 4 3 7 6 2 4 8 19 25 23 15 15 19 17 18 15
2 3 5 6 2 2 7 4 1 1 2 5 3 2 2 5 3 3 3 2 2 2 4 6 4 3 4 3 3 3 5 4 6 5 2 7 8 6 5 4 6 11 13 11 16
2 4 5 4 2 2 2 3 2 1 4 4 1 2 1 3 2 0 1 2 1 4 3 5 2 3 2 3 6 3 4 4 5 4 3 4 8 6 7 14 6 8 8 12 13
2 3 5 4 2 2 1 2 1 2 2 2 2 1 1 3 1 1 0 2 4 3 3 6 3 4 3 5 5 7 1 1 1 1 3 2 1 8 6 8 7 7 6 7 10
3 2 3 1 3 3 1 1 2 4 4 1 2 2 1 0 1 1 1 4 1 1 1 6 2 3 4 2 2 2 1 3 3 2 1 2 2 6 4 3 10 9 11 7 9
3 1 1 1 3 1 1 3 4 3 3 0 1 0 0 1 1 1 0 1 3 2 3 5 2 1 1 1 2 4 4 4 3 1 4 4 2 11 14 10 8 13 15 13 10
1 2 2 3 3 1 2 5 3 3 4 1 2 1 2 1 0 1 0 3 1 3 1 1 5 3 2 2 2 2 4 3 4 3 4 2 6 5 7 8 9 8 8 9 8
1 4 4 3 3 2 5 2 6 5 1 1 0 1 2 1 1 2 3 3 4 7 5 3 4 1 1 1 1 2 2 2 1 2 1 3 6 9 7 7 4 10 6 8 9
3 4 3 1 3 3 4 5 4 3 1 1 1 1 1 2 1 3 2 2 1 2 1 1 4 1 1 1 3 2 3 1 2 4 5 4 4 6 8 11 13 16 13 14 16
3 3 1 2 4 4 3 6 5 5 4 3 3 2 4 2 2 2 3 1 2 1 3 3 2 3 0 5 5 2 1 3 2 3 3 5 5 6 11 11 8 12 14 15 15
3 1 1 6 3 1 3 5 2 2 1 2 3 5 5 4 3 3 5 4 1 4 2 0 3 4 7 1 1 2 5 5 3 4 4 3 10 13 12 5 6 17 18 15 11
2 1 3 2 3 2 3 3 4 3 4 4 3 4 2 4 2 5 4 1 2 4 5 5 1 3 8 1 1 4 5 3 3 2 9 7 9 4 6 16 12 13 17 13 12
3 1 3 3 0 6 4 3 3 1 2 2 2 2 2 3 4 2 3 1 2 2 3 3 4 7 9 8 3 5 5 6 7 4 15 13 28 26 20 11 14 15 16 13 12
2 3 2 2 2 3 3 1 3 3 1 3 1 5 6 3 2 5 3 2 1 0 2 3 6 5 8 10 5 14 11 14 12 21 13 28 21 25 23 15 10 8 10 10 11
3 3 2 1 1 5 3 5 8 3 4 3 3 2 4 6 7 4 3 3 7 1 5 1 4 3 5 11 15 14 16 17 19 21 18 25 24 26 17 4 5 13 7 8 11
2 2 3 1 2 4 4 5 6 4 0 1 4 1 2 7 4 5 6 6 6 7 7 6 4 1 13 3 5 7 17 20 6 7 7 9 16 3 5 6 12 16 7 7 11
Wind_Direction
229 239 254 258 229 160 151 43 360 1 355 2 6 9 15 2 28 49 54 352 328 322 338 97 89 108 90 81 60 135 86 230 231 177 239 146 194 160 110 148 215 200 216 129 159
231 229 223 228 195 150 138 360 345 356 355 3 6 6 0 2 76 71 19 355 334 330 333 58 93 83 52 76 35 101 161 226 217 195 221 189 197 175 176 191 232 225 156 148 162
222 217 197 183 176 162 111 344 340 345 359 3 8 1 359 2 71 151 7 355 353 1 345 87 108 91 106 62 33 151 213 212 268 222 202 199 218 189 191 220 210 211 186 167 174
194 185 178 169 183 180 340 336 335 340 355 4 4 355 3 1 93 154 1 353 353 345 35 103 76 102 152 202 150 276 241 199 262 282 170 211 146 227 205 229 197 214 173 174 183
177 167 180 189 192 233 321 331 331 337 350 1 3 360 29 26 253 182 353 355 355 358 55 126 147 136 206 158 140 197 289 244 265 261 233 168 238 241 247 236 200 142 167 187 195
179 170 181 188 220 312 319 329 328 331 343 354 1 10 93 302 188 302 337 345 25 46 54 60 170 164 107 132 181 177 263 265 260 226 243 233 269 189 251 236 207 189 202 201 203
181 189 187 191 283 308 311 326 325 321 325 339 350 358 93 237 206 273 333 352 36 45 105 70 126 87 135 153 165 156 327 314 231 214 245 187 267 230 237 171 212 221 222 216 217
187 194 176 229 308 303 310 323 314 309 303 307 320 299 236 219 233 245 314 40 13 75 102 98 111 101 64 134 22 9 56 348 218 167 298 180 266 259 260 198 240 231 232 227 224
182 180 97 315 302 309 309 314 311 300 285 280 237 143 274 286 219 183 258 108 47 99 93 108 74 90 62 78 353 8 276 255 311 201 131 198 284 256 195 206 250 241 236 228 234
162 100 332 296 304 309 316 315 296 263 127 121 122 51 285 239 186 207 174 118 114 106 50 45 54 78 56 91 256 268 286 256 249 219 211 235 263 273 256 221 249 250 238 231 231
153 224 278 304 325 321 333 324 20 348 117 195 211 170 260 271 268 185 150 112 105 73 206 6 66 233 227 200 210 252 240 252 250 233 220 240 261 273 273 233 247 245 241 234 233
208 280 317 331 333 348 16 79 140 143 316 308 248 279 256 243 315 296 180 141 124 218 132 7 247 249 189 147 199 219 270 271 281 188 200 295 282 277 278 257 243 248 240 236 234
354 345 347 337 350 57 72 110 133 90 97 302 238 202 199 166 231 252 147 142 162 198 196 189 224 142 175 170 199 229 212 249 254 325 227 302 274 313 289 265 260 249 242 235 231
336 353 348 11 131 98 92 67 63 157 57 284 292 285 122 122 285 269 90 140 144 223 188 230 273 204 182 238 157 277 199 243 279 6 287 11 296 304 305 303 275 288 257 256 241
308 351 2 39 111 84 85 12 81 54 341 181 210 189 106 161 238 321 329 69 209 196 125 256 212 207 209 218 171 230 168 230 63 164 360 360 258 274 322 323 343 340 349 289 261
315 318 3 105 78 92 21 15 63 44 255 214 166 203 168 178 234 86 115 57 93 189 252 251 311 206 213 80 193 89 320 58 59 95 324 245 164 283 285 297 312 308 310 313 320
306 304 4 99 122 48 89 71 34 162 338 222 256 28 13 273 299 128 92 251 198 339 349 317 244 331 129 156 42 66 45 317 337 358 240 163 166 251 283 277 254 286 304 318 305
271 202 154 121 106 88 120 54 208 248 238 294 133 131 236 195 215 360 188 284 193 105 102 37 327 170 177 186 190 150 156 167 285 274 277 134 234 248 235 286 267 259 278 291 319
135 147 146 134 141 143 77 94 215 211 237 246 52 110 295 302 208 11 230 231 225 182 174 163 275 61 50 81 77 148 178 174 239 74 327 242 277 283 293 308 296 324 301 307 320
150 136 112 113 147 117 85 232 237 217 296 77 235 151 287 299 28 25 299 203 314 188 40 204 308 50 348 99 46 187 152 358 33 293 283 275 276 246 301 308 326 333 324 322 325
128 72 147 176 132 58 177 225 256 237 205 164 190 221 219 246 176 230 255 289 18 89 137 135 135 276 343 199 196 98 202 60 160 172 260 295 242 219 255 273 316 306 312 310 312
86 116 15 149 70 31 175 204 257 250 159 212 179 199 205 173 227 235 236 234 182 159 154 71 151 253 239 350 168 166 177 159 145 240 234 250 273 252 249 302 297 318 312 311 306
116 220 28 153 163 230 265 259 223 204 211 173 218 200 187 196 235 197 225 108 181 170 174 182 236 328 330 24 352 217 198 173 103 114 218 256 271 269 286 319 326 314 323 325 311
101 94 328 52 48 148 177 228 235 280 243 161 162 111 148 226 219 249 252 164 173 180 113 150 187 193 246 236 174 233 203 207 193 209 277 244 275 289 293 322 324 325 324 318 319
39 227 204 208 254 168 170 152 194 233 202 178 198 209 177 217 227 224 221 312 219 178 120 165 222 205 245 254 246 258 253 237 213 247 245 271 277 282 291 313 296 291 306 331 331
139 142 18 123 57 133 176 222 198 248 186 243 211 149 187 197 199 215 183 209 225 168 185 157 256 211 248 243 249 258 250 254 242 254 258 260 269 273 289 310 297 330 339 318 324
84 102 106 31 86 117 220 210 206 162 49 97 129 82 245 242 227 232 213 239 235 192 210 176 207 169 279 229 311 270 235 232 210 210 212 248 259 70 328 343 328 314 315 308 322